Time,TemperatureF,DewpointF,PressureIn,WindDirection,WindDirectionDegrees,WindSpeedMPH,WindSpeedGustMPH,Humidity,HourlyPrecipIn,Conditions,Clouds,dailyrainin,SoftwareType,DateUTC
2013-01-07 00:02:00,25.0,18.0,30.21,South,173,3.0,8.0,75,0.00,,,0.00,,2013-01-07 06:02:00,
2013-01-07 00:12:00,25.0,18.0,30.21,South,173,3.0,8.0,75,0.00,,,0.00,,2013-01-07 06:12:00,
2013-01-07 00:22:00,25.0,19.0,30.21,SSE,157,4.0,9.0,76,0.00,,,0.00,,2013-01-07 06:22:00,
2013-01-07 00:32:00,26.0,19.0,30.20,SSE,154,5.0,9.0,75,0.00,,,0.00,,2013-01-07 06:32:00,
2013-01-07 00:42:00,26.0,19.0,30.20,SSE,154,5.0,9.0,75,0.00,,,0.00,,2013-01-07 06:42:00,
2013-01-07 00:52:00,26.0,19.0,30.20,SSE,156,5.0,12.0,74,0.00,,,0.00,,2013-01-07 06:52:00,
2013-01-07 01:02:00,26.0,19.0,30.20,SSE,161,5.0,12.0,74,0.00,,,0.00,,2013-01-07 07:02:00,
2013-01-07 01:12:00,26.0,19.0,30.20,SSE,161,5.0,12.0,74,0.00,,,0.00,,2013-01-07 07:12:00,
2013-01-07 01:22:00,26.0,19.0,30.20,South,180,4.0,13.0,74,0.00,,,0.00,,2013-01-07 07:22:00,
2013-01-07 01:33:00,25.0,18.0,30.20,South,188,2.0,8.0,75,0.00,,,0.00,,2013-01-07 07:33:00,
2013-01-07 01:42:00,25.0,18.0,30.20,South,188,2.0,8.0,75,0.00,,,0.00,,2013-01-07 07:42:00,
2013-01-07 01:53:00,25.0,18.0,30.19,SSE,161,3.0,7.0,75,0.00,,,0.00,,2013-01-07 07:53:00,
2013-01-07 02:02:00,25.0,18.0,30.19,SSE,148,6.0,10.0,75,0.00,,,0.00,,2013-01-07 08:02:00,
2013-01-07 02:12:00,25.0,18.0,30.19,SSE,148,6.0,10.0,75,0.00,,,0.00,,2013-01-07 08:12:00,
2013-01-07 02:22:00,26.0,19.0,30.20,SSE,156,5.0,12.0,74,0.00,,,0.00,,2013-01-07 08:22:00,
2013-01-07 02:32:00,26.0,19.0,30.20,SSE,163,5.0,11.0,74,0.00,,,0.00,,2013-01-07 08:32:00,
2013-01-07 02:42:00,26.0,19.0,30.20,SSE,163,5.0,11.0,74,0.00,,,0.00,,2013-01-07 08:42:00,
2013-01-07 02:53:00,26.0,19.0,30.21,SSE,168,4.0,10.0,74,0.00,,,0.00,,2013-01-07 08:53:00,
2013-01-07 03:02:00,26.0,19.0,30.21,SSE,151,2.0,6.0,74,0.00,,,0.00,,2013-01-07 09:02:00,
2013-01-07 03:12:00,26.0,19.0,30.21,SSE,151,2.0,6.0,74,0.00,,,0.00,,2013-01-07 09:12:00,
2013-01-07 03:22:00,25.0,18.0,30.21,SSE,156,2.0,4.0,75,0.00,,,0.00,,2013-01-07 09:22:00,
2013-01-07 03:32:00,25.0,18.0,30.20,SSE,162,2.0,6.0,75,0.00,,,0.00,,2013-01-07 09:32:00,
2013-01-07 03:42:00,25.0,18.0,30.20,SSE,162,2.0,6.0,75,0.00,,,0.00,,2013-01-07 09:42:00,
2013-01-07 03:52:00,25.0,19.0,30.20,SE,141,2.0,4.0,76,0.00,,,0.00,,2013-01-07 09:52:00,
2013-01-07 04:02:00,26.0,19.0,30.19,SSE,147,5.0,10.0,76,0.00,,,0.00,,2013-01-07 10:02:00,
2013-01-07 04:12:00,26.0,19.0,30.19,SSE,150,4.0,9.0,75,0.00,,,0.00,,2013-01-07 10:12:00,
2013-01-07 04:22:00,26.0,19.0,30.19,SSE,150,4.0,9.0,75,0.00,,,0.00,,2013-01-07 10:22:00,
2013-01-07 04:32:00,26.0,19.0,30.18,SE,142,5.0,9.0,75,0.00,,,0.00,,2013-01-07 10:32:00,
2013-01-07 04:42:00,26.0,19.0,30.18,SE,142,5.0,9.0,75,0.00,,,0.00,,2013-01-07 10:42:00,
2013-01-07 04:52:00,26.0,19.0,30.17,SSE,148,5.0,11.0,75,0.00,,,0.00,,2013-01-07 10:52:00,
2013-01-07 05:02:00,27.0,20.0,30.16,SSE,161,6.0,14.0,75,0.00,,,0.00,,2013-01-07 11:02:00,
2013-01-07 05:12:00,27.0,20.0,30.16,SSE,161,6.0,14.0,75,0.00,,,0.00,,2013-01-07 11:12:00,
2013-01-07 05:22:00,27.0,20.0,30.15,SSE,163,5.0,11.0,74,0.00,,,0.00,,2013-01-07 11:22:00,
2013-01-07 05:32:00,27.0,20.0,30.15,SSE,166,5.0,14.0,74,0.00,,,0.00,,2013-01-07 11:32:00,
2013-01-07 05:43:00,27.0,20.0,30.15,SSE,166,5.0,14.0,74,0.00,,,0.00,,2013-01-07 11:43:00,
2013-01-07 05:53:00,27.0,20.0,30.14,South,174,5.0,12.0,74,0.00,,,0.00,,2013-01-07 11:53:00,
2013-01-07 06:02:00,27.0,20.0,30.14,SW,226,4.0,8.0,73,0.00,,,0.00,,2013-01-07 12:02:00,
2013-01-07 06:12:00,28.0,20.0,30.14,South,188,6.0,10.0,73,0.00,,,0.00,,2013-01-07 12:12:00,
2013-01-07 06:22:00,28.0,20.0,30.14,South,188,6.0,10.0,73,0.00,,,0.00,,2013-01-07 12:22:00,
2013-01-07 06:32:00,28.0,20.0,30.14,SSW,203,6.0,10.0,72,0.00,,,0.00,,2013-01-07 12:32:00,
2013-01-07 06:43:00,28.0,20.0,30.14,SSW,203,6.0,10.0,72,0.00,,,0.00,,2013-01-07 12:43:00,
2013-01-07 06:53:00,28.0,20.0,30.13,South,186,6.0,14.0,71,0.00,,,0.00,,2013-01-07 12:53:00,
2013-01-07 07:02:00,28.0,20.0,30.13,South,182,9.0,15.0,71,0.00,,,0.00,,2013-01-07 13:02:00,
2013-01-07 07:12:00,28.0,20.0,30.13,South,182,9.0,15.0,71,0.00,,,0.00,,2013-01-07 13:12:00,
2013-01-07 07:23:00,28.0,20.0,30.12,South,170,7.0,15.0,71,0.00,,,0.00,,2013-01-07 13:23:00,
2013-01-07 07:33:00,29.0,20.0,30.11,South,190,8.0,16.0,70,0.00,,,0.00,,2013-01-07 13:33:00,
2013-01-07 07:42:00,29.0,20.0,30.11,South,190,8.0,16.0,70,0.00,,,0.00,,2013-01-07 13:42:00,
2013-01-07 07:53:00,30.0,21.0,30.10,SSW,195,10.0,19.0,69,0.00,,,0.00,,2013-01-07 13:53:00,
2013-01-07 08:03:00,30.0,21.0,30.10,South,190,8.0,20.0,68,0.00,,,0.00,,2013-01-07 14:03:00,
2013-01-07 08:12:00,30.0,21.0,30.10,South,190,8.0,20.0,68,0.00,,,0.00,,2013-01-07 14:12:00,
2013-01-07 08:22:00,31.0,21.0,30.09,South,181,8.0,19.0,67,0.00,,,0.00,,2013-01-07 14:22:00,
2013-01-07 08:33:00,32.0,22.0,30.09,South,188,10.0,19.0,65,0.00,,,0.00,,2013-01-07 14:33:00,
2013-01-07 08:42:00,32.0,22.0,30.09,South,188,10.0,19.0,65,0.00,,,0.00,,2013-01-07 14:42:00,
2013-01-07 08:53:00,32.0,22.0,30.09,SSW,196,9.0,19.0,65,0.00,,,0.00,,2013-01-07 14:53:00,
2013-01-07 09:03:00,34.0,22.0,30.09,SSW,200,12.0,23.0,62,0.00,,,0.00,,2013-01-07 15:03:00,
2013-01-07 09:12:00,34.0,22.0,30.09,SSW,200,12.0,23.0,62,0.00,,,0.00,,2013-01-07 15:12:00,
2013-01-07 09:22:00,35.0,23.0,30.08,South,187,11.0,19.0,61,0.00,,,0.00,,2013-01-07 15:22:00,
2013-01-07 09:33:00,36.0,23.0,30.09,SSW,206,9.0,20.0,59,0.00,,,0.00,,2013-01-07 15:33:00,
2013-01-07 09:42:00,36.0,23.0,30.09,SSW,206,9.0,20.0,59,0.00,,,0.00,,2013-01-07 15:42:00,
2013-01-07 09:53:00,38.0,23.0,30.10,SSW,198,11.0,20.0,55,0.00,,,0.00,,2013-01-07 15:53:00,
2013-01-07 10:02:00,38.0,23.0,30.09,SSW,202,12.0,20.0,54,0.00,,,0.00,,2013-01-07 16:02:00,
2013-01-07 10:12:00,38.0,23.0,30.09,SSW,202,12.0,20.0,54,0.00,,,0.00,,2013-01-07 16:12:00,
2013-01-07 10:22:00,39.0,24.0,30.09,SSW,195,9.0,18.0,54,0.00,,,0.00,,2013-01-07 16:22:00,
2013-01-07 10:33:00,39.0,24.0,30.08,SW,218,10.0,19.0,54,0.00,,,0.00,,2013-01-07 16:33:00,
2013-01-07 10:43:00,39.0,24.0,30.08,SW,218,10.0,19.0,54,0.00,,,0.00,,2013-01-07 16:43:00,
2013-01-07 10:53:00,39.0,24.0,30.08,SSW,212,9.0,19.0,54,0.00,,,0.00,,2013-01-07 16:53:00,
2013-01-07 11:02:00,41.0,24.0,30.07,SSW,206,12.0,18.0,51,0.00,,,0.00,,2013-01-07 17:02:00,
2013-01-07 11:12:00,41.0,24.0,30.07,SSW,206,12.0,18.0,51,0.00,,,0.00,,2013-01-07 17:12:00,
2013-01-07 11:23:00,42.0,25.0,30.07,SSW,194,8.0,22.0,50,0.00,,,0.00,,2013-01-07 17:23:00,
2013-01-07 11:33:00,43.0,25.0,30.06,SW,216,12.0,24.0,48,0.00,,,0.00,,2013-01-07 17:33:00,
2013-01-07 11:42:00,43.0,25.0,30.06,SW,216,12.0,24.0,48,0.00,,,0.00,,2013-01-07 17:42:00,
2013-01-07 11:53:00,43.0,25.0,30.05,SSW,204,9.0,17.0,48,0.00,,,0.00,,2013-01-07 17:53:00,
2013-01-07 12:02:00,44.0,25.0,30.05,SW,233,6.0,18.0,47,0.00,,,0.00,,2013-01-07 18:02:00,
2013-01-07 12:12:00,44.0,25.0,30.05,SW,233,6.0,18.0,47,0.00,,,0.00,,2013-01-07 18:12:00,
2013-01-07 12:23:00,44.0,25.0,30.05,SW,233,6.0,18.0,47,0.00,,,0.00,,2013-01-07 18:23:00,
2013-01-07 12:32:00,45.0,25.0,30.02,SSW,213,10.0,17.0,45,0.00,,,0.00,,2013-01-07 18:32:00,
2013-01-07 12:42:00,45.0,25.0,30.02,SW,221,10.0,24.0,45,0.00,,,0.00,,2013-01-07 18:42:00,
2013-01-07 12:53:00,45.0,25.0,30.02,SW,221,10.0,24.0,45,0.00,,,0.00,,2013-01-07 18:53:00,
2013-01-07 13:03:00,45.0,24.0,30.01,WSW,238,8.0,16.0,44,0.00,,,0.00,,2013-01-07 19:03:00,
2013-01-07 13:12:00,45.0,24.0,30.01,WSW,238,8.0,16.0,44,0.00,,,0.00,,2013-01-07 19:12:00,
2013-01-07 13:22:00,46.0,25.0,30.01,SSW,209,6.0,17.0,44,0.00,,,0.00,,2013-01-07 19:22:00,
2013-01-07 13:33:00,47.0,26.0,30.00,SW,219,7.0,15.0,43,0.00,,,0.00,,2013-01-07 19:33:00,
2013-01-07 13:42:00,47.0,26.0,30.00,SW,219,7.0,15.0,43,0.00,,,0.00,,2013-01-07 19:42:00,
2013-01-07 13:53:00,46.0,25.0,30.00,SW,228,8.0,14.0,44,0.00,,,0.00,,2013-01-07 19:53:00,
2013-01-07 14:03:00,47.0,26.0,29.99,SW,225,6.0,11.0,43,0.00,,,0.00,,2013-01-07 20:03:00,
2013-01-07 14:12:00,47.0,26.0,29.99,SW,225,6.0,11.0,43,0.00,,,0.00,,2013-01-07 20:12:00,
2013-01-07 14:23:00,47.0,26.0,30.00,SW,214,3.0,9.0,43,0.00,,,0.00,,2013-01-07 20:23:00,
2013-01-07 14:33:00,48.0,26.0,29.99,SW,222,6.0,10.0,42,0.00,,,0.00,,2013-01-07 20:33:00,
2013-01-07 14:42:00,48.0,26.0,29.99,SW,222,6.0,10.0,42,0.00,,,0.00,,2013-01-07 20:42:00,
2013-01-07 14:53:00,48.0,27.0,30.00,South,175,4.0,14.0,43,0.00,,,0.00,,2013-01-07 20:53:00,
2013-01-07 15:02:00,47.0,25.0,30.00,SW,217,7.0,11.0,42,0.00,,,0.00,,2013-01-07 21:02:00,
2013-01-07 15:12:00,47.0,25.0,30.00,SW,217,7.0,11.0,42,0.00,,,0.00,,2013-01-07 21:12:00,
2013-01-07 15:22:00,47.0,26.0,30.01,SSW,209,5.0,13.0,43,0.00,,,0.00,,2013-01-07 21:22:00,
2013-01-07 15:33:00,47.0,26.0,30.01,SW,228,5.0,10.0,44,0.00,,,0.00,,2013-01-07 21:33:00,
2013-01-07 15:42:00,47.0,26.0,30.01,SW,228,5.0,10.0,44,0.00,,,0.00,,2013-01-07 21:42:00,
2013-01-07 15:53:00,46.0,26.0,30.01,SW,219,4.0,11.0,45,0.00,,,0.00,,2013-01-07 21:53:00,
2013-01-07 16:02:00,45.0,25.0,30.01,SSW,201,3.0,7.0,46,0.00,,,0.00,,2013-01-07 22:02:00,
2013-01-07 16:12:00,45.0,25.0,30.01,SSW,201,3.0,7.0,46,0.00,,,0.00,,2013-01-07 22:12:00,
2013-01-07 16:22:00,46.0,27.0,30.01,SSW,194,3.0,7.0,47,0.00,,,0.00,,2013-01-07 22:22:00,
2013-01-07 16:33:00,45.0,27.0,30.01,South,184,1.0,7.0,48,0.00,,,0.00,,2013-01-07 22:33:00,
2013-01-07 16:42:00,45.0,27.0,30.01,South,184,1.0,7.0,48,0.00,,,0.00,,2013-01-07 22:42:00,
2013-01-07 16:53:00,44.0,27.0,30.01,South,176,3.0,6.0,50,0.00,,,0.00,,2013-01-07 22:53:00,
2013-01-07 17:02:00,43.0,27.0,30.01,South,190,3.0,8.0,52,0.00,,,0.00,,2013-01-07 23:02:00,
2013-01-07 17:12:00,43.0,27.0,30.01,South,190,3.0,8.0,52,0.00,,,0.00,,2013-01-07 23:12:00,
2013-01-07 17:22:00,42.0,26.0,30.01,SSW,200,3.0,6.0,53,0.00,,,0.00,,2013-01-07 23:22:00,
2013-01-07 17:32:00,42.0,26.0,30.01,SSW,198,1.0,6.0,53,0.00,,,0.00,,2013-01-07 23:32:00,
2013-01-07 17:42:00,42.0,26.0,30.01,SSW,198,1.0,6.0,53,0.00,,,0.00,,2013-01-07 23:42:00,
2013-01-07 17:53:00,41.0,27.0,30.00,SSE,149,1.0,4.0,56,0.00,,,0.00,,2013-01-07 23:53:00,
2013-01-07 18:02:00,40.0,26.0,30.00,SSE,163,3.0,8.0,57,0.00,,,0.00,,2013-01-08 00:02:00,
2013-01-07 18:12:00,40.0,26.0,30.00,SSE,163,3.0,8.0,57,0.00,,,0.00,,2013-01-08 00:12:00,
2013-01-07 18:22:00,40.0,26.0,30.01,South,172,3.0,8.0,58,0.00,,,0.00,,2013-01-08 00:22:00,
2013-01-07 18:32:00,40.0,26.0,30.01,South,179,4.0,8.0,58,0.00,,,0.00,,2013-01-08 00:32:00,
2013-01-07 18:42:00,40.0,26.0,30.01,South,179,4.0,8.0,58,0.00,,,0.00,,2013-01-08 00:42:00,
2013-01-07 18:53:00,39.0,26.0,30.01,SSE,156,3.0,6.0,59,0.00,,,0.00,,2013-01-08 00:53:00,
2013-01-07 19:02:00,39.0,26.0,30.01,SSE,150,3.0,7.0,60,0.00,,,0.00,,2013-01-08 01:02:00,
2013-01-07 19:12:00,39.0,26.0,30.01,SSE,150,3.0,7.0,60,0.00,,,0.00,,2013-01-08 01:12:00,
2013-01-07 19:22:00,39.0,26.0,30.01,SSE,165,3.0,8.0,60,0.00,,,0.00,,2013-01-08 01:22:00,
2013-01-07 19:32:00,38.0,26.0,30.02,SSE,161,2.0,5.0,62,0.00,,,0.00,,2013-01-08 01:32:00,
2013-01-07 19:42:00,38.0,26.0,30.02,SSE,161,2.0,5.0,62,0.00,,,0.00,,2013-01-08 01:42:00,
2013-01-07 19:52:00,38.0,27.0,30.02,South,169,2.0,4.0,63,0.00,,,0.00,,2013-01-08 01:52:00,
2013-01-07 20:02:00,37.0,26.0,30.02,South,186,2.0,6.0,64,0.00,,,0.00,,2013-01-08 02:02:00,
2013-01-07 20:12:00,37.0,26.0,30.02,South,186,2.0,6.0,64,0.00,,,0.00,,2013-01-08 02:12:00,
2013-01-07 20:22:00,37.0,26.0,30.02,SSE,168,1.0,5.0,65,0.00,,,0.00,,2013-01-08 02:22:00,
2013-01-07 20:33:00,37.0,26.0,30.02,South,187,2.0,4.0,65,0.00,,,0.00,,2013-01-08 02:33:00,
2013-01-07 20:42:00,37.0,26.0,30.02,South,187,2.0,4.0,65,0.00,,,0.00,,2013-01-08 02:42:00,
2013-01-07 20:53:00,36.0,26.0,30.02,SSW,206,1.0,5.0,67,0.00,,,0.00,,2013-01-08 02:53:00,
2013-01-07 21:03:00,36.0,26.0,30.02,SW,230,1.0,3.0,67,0.00,,,0.00,,2013-01-08 03:03:00,
2013-01-07 21:12:00,36.0,26.0,30.02,SW,230,1.0,3.0,67,0.00,,,0.00,,2013-01-08 03:12:00,
2013-01-07 21:22:00,35.0,26.0,30.02,SSW,213,1.0,3.0,68,0.00,,,0.00,,2013-01-08 03:22:00,
2013-01-07 21:32:00,35.0,26.0,30.02,North,0,0.0,2.0,69,0.00,,,0.00,,2013-01-08 03:32:00,
2013-01-07 21:42:00,35.0,26.0,30.02,North,0,0.0,2.0,69,0.00,,,0.00,,2013-01-08 03:42:00,
2013-01-07 21:53:00,34.0,25.0,30.02,North,0,0.0,2.0,70,0.00,,,0.00,,2013-01-08 03:53:00,
2013-01-07 22:02:00,34.0,26.0,30.01,North,0,0.0,2.0,71,0.00,,,0.00,,2013-01-08 04:02:00,
2013-01-07 22:12:00,34.0,26.0,30.01,North,0,0.0,2.0,71,0.00,,,0.00,,2013-01-08 04:12:00,
2013-01-07 22:22:00,34.0,26.0,30.02,SSW,211,1.0,3.0,72,0.00,,,0.00,,2013-01-08 04:22:00,
2013-01-07 22:32:00,34.0,26.0,30.02,SSW,195,2.0,6.0,71,0.00,,,0.00,,2013-01-08 04:32:00,
2013-01-07 22:42:00,34.0,26.0,30.02,SSW,195,2.0,6.0,71,0.00,,,0.00,,2013-01-08 04:42:00,
2013-01-07 22:52:00,34.0,26.0,30.02,South,176,2.0,4.0,71,0.00,,,0.00,,2013-01-08 04:52:00,
2013-01-07 23:03:00,34.0,26.0,30.02,South,179,2.0,5.0,71,0.00,,,0.00,,2013-01-08 05:03:00,
2013-01-07 23:12:00,34.0,26.0,30.02,South,179,2.0,5.0,71,0.00,,,0.00,,2013-01-08 05:12:00,
2013-01-07 23:22:00,34.0,26.0,30.02,SSE,167,3.0,5.0,72,0.00,,,0.00,,2013-01-08 05:22:00,
2013-01-07 23:33:00,34.0,26.0,30.02,SSE,161,3.0,7.0,72,0.00,,,0.00,,2013-01-08 05:33:00,
2013-01-07 23:42:00,34.0,26.0,30.02,SSE,161,3.0,7.0,72,0.00,,,0.00,,2013-01-08 05:42:00,
2013-01-07 23:53:00,34.0,26.0,30.02,SSE,159,3.0,7.0,72,0.00,,,0.00,,2013-01-08 05:53:00,